TimeEDT,TemperatureF,Dew PointF,Humidity,Sea Level PressureIn,VisibilityMPH,Wind Direction,Wind SpeedMPH,Gust SpeedMPH,PrecipitationIn,Events,Conditions,WindDirDegrees,DateUTC
12:53 AM,72.0,64.0,76,30.02,10.0,East,13.8,21.9,N/A,,Clear,100,2013-04-18 04:53:00
1:53 AM,71.1,64.0,78,30.01,10.0,East,10.4,-,N/A,,Clear,90,2013-04-18 05:53:00
2:53 AM,70.0,64.9,84,30.01,10.0,East,6.9,-,N/A,,Clear,90,2013-04-18 06:53:00
3:53 AM,69.1,64.9,87,30.00,10.0,East,6.9,-,N/A,,Clear,100,2013-04-18 07:53:00
4:53 AM,68.0,64.9,90,29.99,10.0,ESE,6.9,-,N/A,,Clear,110,2013-04-18 08:53:00
5:53 AM,68.0,64.9,90,30.00,10.0,East,6.9,-,N/A,,Clear,90,2013-04-18 09:53:00
6:53 AM,66.9,64.0,90,30.01,10.0,East,4.6,-,N/A,,Clear,100,2013-04-18 10:53:00
7:53 AM,68.0,64.9,90,30.02,10.0,East,4.6,-,N/A,,Clear,100,2013-04-18 11:53:00
8:53 AM,73.0,66.0,79,30.03,10.0,East,9.2,-,N/A,,Clear,90,2013-04-18 12:53:00
9:53 AM,77.0,66.9,71,30.03,10.0,ESE,11.5,-,N/A,,Clear,110,2013-04-18 13:53:00
10:53 AM,82.0,66.9,60,30.02,10.0,SE,11.5,-,N/A,,Clear,130,2013-04-18 14:53:00
11:53 AM,86.0,66.9,53,30.01,10.0,SE,11.5,-,N/A,,Scattered Clouds,130,2013-04-18 15:53:00
12:53 PM,84.0,66.0,55,30.01,10.0,ESE,4.6,-,N/A,,Overcast,120,2013-04-18 16:53:00
1:53 PM,82.9,71.1,67,30.00,10.0,WSW,8.1,-,N/A,,Overcast,240,2013-04-18 17:53:00
2:53 PM,84.0,69.1,61,29.99,10.0,SSW,10.4,-,N/A,,Mostly Cloudy,210,2013-04-18 18:53:00
3:53 PM,84.0,66.9,56,29.97,10.0,SW,10.4,-,N/A,,Clear,230,2013-04-18 19:53:00
4:53 PM,84.0,66.9,56,29.96,10.0,SW,8.1,-,N/A,,Clear,220,2013-04-18 20:53:00
5:53 PM,82.9,69.1,63,29.95,10.0,SW,11.5,-,N/A,,Clear,220,2013-04-18 21:53:00
6:53 PM,81.0,70.0,69,29.95,10.0,SSW,8.1,-,N/A,,Clear,210,2013-04-18 22:53:00
7:53 PM,79.0,70.0,74,29.95,10.0,South,8.1,-,N/A,,Clear,190,2013-04-18 23:53:00
8:53 PM,79.0,71.1,77,29.98,10.0,South,8.1,-,N/A,,Mostly Cloudy,190,2013-04-19 00:53:00
9:53 PM,79.0,71.1,77,29.99,10.0,South,8.1,-,N/A,,Mostly Cloudy,190,2013-04-19 01:53:00
10:53 PM,78.1,71.1,79,30.00,10.0,South,6.9,-,N/A,,Mostly Cloudy,170,2013-04-19 02:53:00
11:53 PM,79.0,71.1,77,29.99,10.0,SSE,4.6,-,N/A,,Overcast,160,2013-04-19 03:53:00